• In Romania
  • List of Countries
  • For 7 days
  • Water Temperature
  • Satellite Maps
  • Weather Map
  • Weather Widgets
  • user-avatar
    Login

    Hourly Weather La Rioja

    Today, 28 March, Tuesday

    Time Temperature Precipitation Wind Pressure Humidity
    00:00 +26°C° 0.1 mm 2 mps 715 mmHg 81%
    01:00 +25°C° 0.1 mm 1 mps 715 mmHg 83%
    02:00 +25°C° 0 mm 2 mps 714 mmHg 84%
    03:00 +25°C° 0 mm 2 mps 714 mmHg 85%
    04:00 +25°C° 0 mm 2 mps 714 mmHg 86%
    05:00 +24°C° 0 mm 2 mps 714 mmHg 86%
    06:00 +25°C° 0 mm 2 mps 715 mmHg 84%
    07:00 +25°C° 0 mm 2 mps 715 mmHg 82%
    08:00 +26°C° 0 mm 2 mps 715 mmHg 79%
    09:00 +27°C° 0.1 mm 2 mps 715 mmHg 72%
    10:00 +28°C° 0.1 mm 2 mps 715 mmHg 65%
    11:00 +30°C° 0.1 mm 2 mps 715 mmHg 58%
    12:00 +31°C° 0.1 mm 3 mps 715 mmHg 54%
    13:00 +33°C° 0.1 mm 3 mps 714 mmHg 49%
    14:00 +34°C° 0.1 mm 3 mps 714 mmHg 45%
    15:00 +34°C° 0 mm 4 mps 713 mmHg 46%
    16:00 +34°C° 0 mm 5 mps 713 mmHg 46%
    17:00 +34°C° 0 mm 5 mps 713 mmHg 47%
    18:00 +32°C° 0 mm 5 mps 713 mmHg 53%
    19:00 +30°C° 0 mm 4 mps 713 mmHg 59%
    20:00 +29°C° 0 mm 3 mps 714 mmHg 65%
    21:00 +28°C° 0.2 mm 3 mps 714 mmHg 69%
    22:00 +27°C° 0.2 mm 3 mps 714 mmHg 72%
    23:00 +27°C° 0.2 mm 2 mps 715 mmHg 75%

    Tomorrow, 29 March, Wednesday

    Time Temperature Precipitation Wind Pressure Humidity
    00:00 +26°C° 0 mm 2 mps 714 mmHg 76%
    01:00 +26°C° 0 mm 2 mps 714 mmHg 78%
    02:00 +26°C° 0 mm 2 mps 714 mmHg 79%
    03:00 +25°C° 0 mm 2 mps 713 mmHg 80%
    04:00 +25°C° 0 mm 2 mps 713 mmHg 81%
    05:00 +25°C° 0 mm 2 mps 713 mmHg 82%
    06:00 +25°C° 0 mm 2 mps 713 mmHg 79%
    07:00 +26°C° 0 mm 2 mps 713 mmHg 76%
    08:00 +26°C° 0 mm 3 mps 713 mmHg 74%
    09:00 +28°C° 0 mm 3 mps 713 mmHg 67%
    10:00 +29°C° 0 mm 3 mps 713 mmHg 60%
    11:00 +31°C° 0 mm 3 mps 712 mmHg 53%
    12:00 +33°C° 0 mm 4 mps 711 mmHg 48%
    13:00 +35°C° 0 mm 4 mps 710 mmHg 43%
    14:00 +36°C° 0 mm 5 mps 710 mmHg 38%
    15:00 +36°C° 0 mm 5 mps 709 mmHg 39%
    16:00 +35°C° 0 mm 5 mps 708 mmHg 40%
    17:00 +35°C° 0 mm 5 mps 708 mmHg 41%
    18:00 +34°C° 0 mm 5 mps 708 mmHg 48%
    19:00 +32°C° 0 mm 4 mps 709 mmHg 56%
    20:00 +29°C° 0 mm 3 mps 709 mmHg 63%
    21:00 +29°C° 0 mm 3 mps 709 mmHg 65%
    22:00 +28°C° 0 mm 2 mps 710 mmHg 67%
    23:00 +27°C° 0 mm 2 mps 710 mmHg 69%

    Day after tomorrow, 30 March, Thursday

    Time Temperature Precipitation Wind Pressure Humidity
    00:00 +27°C° 0 mm 2 mps 710 mmHg 71%
    01:00 +27°C° 0 mm 2 mps 710 mmHg 72%
    02:00 +26°C° 0 mm 2 mps 710 mmHg 74%
    03:00 +26°C° 0 mm 2 mps 710 mmHg 75%
    04:00 +26°C° 0 mm 2 mps 710 mmHg 76%
    05:00 +25°C° 0 mm 2 mps 711 mmHg 78%
    06:00 +26°C° 0.1 mm 2 mps 711 mmHg 75%
    07:00 +26°C° 0.1 mm 3 mps 712 mmHg 73%
    08:00 +27°C° 0.1 mm 3 mps 713 mmHg 70%
    09:00 +28°C° 0.1 mm 4 mps 713 mmHg 64%
    10:00 +29°C° 0.1 mm 4 mps 714 mmHg 57%
    11:00 +32°C° 0.1 mm 5 mps 714 mmHg 51%
    12:00 +32°C° 0 mm 5 mps 713 mmHg 49%
    13:00 +33°C° 0 mm 5 mps 712 mmHg 47%
    14:00 +34°C° 0 mm 5 mps 712 mmHg 45%
    15:00 +33°C° 0 mm 5 mps 711 mmHg 47%
    16:00 +32°C° 0 mm 5 mps 711 mmHg 50%
    17:00 +32°C° 0 mm 5 mps 711 mmHg 53%
    18:00 +29°C° 0.3 mm 4 mps 711 mmHg 61%
    19:00 +28°C° 0.3 mm 3 mps 712 mmHg 70%
    20:00 +27°C° 0.3 mm 2 mps 713 mmHg 79%
    21:00 +26°C° 0.3 mm 2 mps 713 mmHg 81%
    22:00 +26°C° 0.3 mm 2 mps 713 mmHg 84%
    23:00 +25°C° 0.3 mm 2 mps 714 mmHg 87%

    31 March, Friday

    Time Temperature Precipitation Wind Pressure Humidity
    00:00 +25°C° 0.4 mm 2 mps 714 mmHg 88%
    01:00 +25°C° 0.4 mm 2 mps 713 mmHg 89%
    02:00 +24°C° 0.4 mm 2 mps 713 mmHg 90%
    03:00 +24°C° 0.1 mm 2 mps 713 mmHg 90%
    04:00 +24°C° 0.1 mm 2 mps 713 mmHg 90%
    05:00 +24°C° 0.1 mm 2 mps 713 mmHg 90%
    06:00 +24°C° 0.1 mm 2 mps 713 mmHg 88%
    07:00 +25°C° 0.1 mm 2 mps 714 mmHg 87%
    08:00 +25°C° 0.1 mm 2 mps 714 mmHg 85%
    09:00 +26°C° 0.1 mm 2 mps 714 mmHg 78%
    10:00 +27°C° 0.1 mm 2 mps 714 mmHg 72%
    11:00 +29°C° 0.1 mm 2 mps 714 mmHg 65%
    12:00 +29°C° 0.1 mm 3 mps 714 mmHg 61%
    13:00 +30°C° 0.1 mm 3 mps 713 mmHg 58%
    14:00 +32°C° 0.1 mm 4 mps 712 mmHg 54%
    15:00 +32°C° 0 mm 4 mps 712 mmHg 55%
    16:00 +32°C° 0 mm 4 mps 712 mmHg 56%
    17:00 +30°C° 0 mm 4 mps 712 mmHg 57%
    18:00 +29°C° 0 mm 4 mps 713 mmHg 61%
    19:00 +28°C° 0 mm 3 mps 714 mmHg 65%
    20:00 +28°C° 0 mm 3 mps 714 mmHg 69%
    21:00 +27°C° 0.1 mm 3 mps 715 mmHg 71%
    22:00 +27°C° 0.1 mm 3 mps 715 mmHg 72%
    23:00 +26°C° 0.1 mm 3 mps 715 mmHg 74%

    1 April, Saturday

    Time Temperature Precipitation Wind Pressure Humidity
    00:00 +26°C° 0.1 mm 2 mps 715 mmHg 76%
    01:00 +25°C° 0.1 mm 2 mps 714 mmHg 79%
    02:00 +25°C° 0.1 mm 2 mps 714 mmHg 81%
    03:00 +24°C° 0.1 mm 2 mps 714 mmHg 82%
    04:00 +24°C° 0.1 mm 2 mps 714 mmHg 82%
    05:00 +24°C° 0.1 mm 2 mps 713 mmHg 83%
    06:00 +24°C° 0.1 mm 2 mps 714 mmHg 80%
    07:00 +25°C° 0.1 mm 2 mps 714 mmHg 78%
    08:00 +25°C° 0.1 mm 2 mps 714 mmHg 76%
    09:00 +27°C° 0 mm 2 mps 714 mmHg 70%
    10:00 +28°C° 0 mm 2 mps 714 mmHg 64%
    11:00 +29°C° 0 mm 2 mps 714 mmHg 58%
    12:00 +30°C° 0.1 mm 3 mps 713 mmHg 56%
    13:00 +31°C° 0.1 mm 3 mps 712 mmHg 53%
    14:00 +33°C° 0.1 mm 3 mps 712 mmHg 50%
    15:00 +33°C° 0.2 mm 4 mps 711 mmHg 52%
    16:00 +33°C° 0.2 mm 4 mps 711 mmHg 53%
    17:00 +32°C° 0.2 mm 4 mps 711 mmHg 54%
    18:00 +30°C° 0.1 mm 4 mps 711 mmHg 59%
    19:00 +29°C° 0.1 mm 3 mps 712 mmHg 64%
    20:00 +28°C° 0.1 mm 3 mps 712 mmHg 69%
    21:00 +27°C° 0 mm 3 mps 712 mmHg 70%
    22:00 +27°C° 0 mm 3 mps 712 mmHg 72%
    23:00 +26°C° 0 mm 2 mps 713 mmHg 74%

    2 April, Sunday

    Time Temperature Precipitation Wind Pressure Humidity
    00:00 +26°C° 0.1 mm 2 mps 712 mmHg 75%
    01:00 +26°C° 0.1 mm 2 mps 712 mmHg 77%
    02:00 +25°C° 0.1 mm 2 mps 712 mmHg 78%
    03:00 +25°C° 0.3 mm 2 mps 711 mmHg 79%
    04:00 +25°C° 0.3 mm 1 mps 711 mmHg 80%
    05:00 +24°C° 0.3 mm 1 mps 711 mmHg 80%
    06:00 +25°C° 0.1 mm 2 mps 712 mmHg 77%
    07:00 +26°C° 0.1 mm 2 mps 712 mmHg 74%
    08:00 +26°C° 0.1 mm 2 mps 712 mmHg 72%
    09:00 +28°C° 0 mm 2 mps 712 mmHg 66%
    10:00 +29°C° 0 mm 2 mps 712 mmHg 60%
    11:00 +30°C° 0 mm 2 mps 712 mmHg 53%
    12:00 +31°C° 0.3 mm 3 mps 711 mmHg 50%
    13:00 +33°C° 0.3 mm 3 mps 711 mmHg 46%
    14:00 +35°C° 0.3 mm 3 mps 710 mmHg 42%
    15:00 +34°C° 0.5 mm 4 mps 710 mmHg 43%
    16:00 +34°C° 0.5 mm 4 mps 710 mmHg 44%
    17:00 +34°C° 0.5 mm 4 mps 710 mmHg 44%
    18:00 +32°C° 0.2 mm 4 mps 711 mmHg 51%
    19:00 +30°C° 0.2 mm 4 mps 712 mmHg 58%
    20:00 +28°C° 0.2 mm 4 mps 713 mmHg 66%
    21:00 +27°C° 0.1 mm 3 mps 713 mmHg 70%
    22:00 +26°C° 0.1 mm 3 mps 714 mmHg 74%
    23:00 +25°C° 0.1 mm 3 mps 715 mmHg 78%
    Show more